[[{"header":{"parameterUnit":"m.s-1","parameterCategory":1,"la1":30.2991,"la2":30.254,"lo1":-89.0895,"lo2":-89.0444,"dy":0.0017,"dx":0.0017,"nx":28,"ny":28,"refTime":"2025-07-25T09:00:00:Z","depth":0,"parameterNumber":2,"parameterNumberName":"U-component_of_WINDS"},"data":[0,0,0,0,0,0,0,0,0,0,0,0,0,0,0,0,0,0,0,0,0,0,0,0,0,0,0,0,0,0,0,0,0,0,0,0,0,0,0,0,0,0,0,0,0,0,0,0,0,0,0,0,0,0,0,0,0,0,-1.5895,-1.5896,0,-1.6041,-1.6043,-1.6045,-1.6165,-1.6166,-1.6167,-1.6168,-1.633,-1.6333,-1.6336,0,0,0,0,0,0,0,0,0,0,0,0,0,-1.5727,-1.573,-1.5895,-1.5896,-1.5898,-1.6041,-1.6043,-1.6045,-1.6164,-1.6166,-1.6167,-1.6169,-1.6329,-1.6332,-1.6336,0,0,0,0,0,0,0,0,0,0,0,0,0,-1.583,-1.5731,-1.5894,-1.5975,-1.5983,-1.6041,-1.6043,-1.6046,-1.6164,-1.6166,-1.6168,-1.6169,-1.6327,-1.6332,-1.6337,-1.633,0,0,-1.6351,-1.6353,0,0,0,0,0,0,0,0,-1.5824,-1.5836,-1.5961,-1.5969,-1.5979,-1.6086,-1.6044,-1.6141,-1.6164,-1.6096,-1.6168,-1.617,-1.6248,-1.6259,-1.6283,-1.6337,-1.6344,-1.6352,-1.6355,-1.6357,-1.6358,0,0,0,0,0,0,0,-1.5817,-1.583,-1.5953,-1.5963,-1.5974,-1.6007,-1.6023,-1.6063,-1.616,-1.6102,-1.6111,-1.6126,-1.6253,-1.6278,-1.6288,-1.6347,-1.6352,-1.6356,-1.6359,-1.6361,-1.6402,-1.6401,0,0,0,0,0,0,-1.5796,-1.5823,-1.5948,-1.5957,-1.5904,-1.6008,-1.6027,-1.605,-1.616,-1.6178,-1.6124,-1.6131,-1.6269,-1.6282,-1.6294,-1.6292,-1.6357,-1.6361,-1.6364,-1.6404,-1.6402,-1.64,0,0,0,0,0,0,-1.5792,-1.5806,-1.5942,-1.5893,-1.5913,-1.6009,-1.6035,-1.6052,-1.6077,-1.6177,-1.6196,-1.6131,-1.6271,-1.6288,-1.6319,-1.6299,-1.6363,-1.6368,-1.6406,-1.6403,-1.6401,-1.6288,0,0,0,0,0,0,-1.5786,-1.5803,-1.5799,-1.5892,-1.5915,-1.5961,-1.6033,-1.6054,-1.6084,-1.6094,-1.6188,-1.6206,-1.6274,-1.6311,-1.6324,-1.6307,-1.6371,-1.6408,-1.6405,-1.6402,-1.6294,-1.6282,-1.6271,0,0,0,0,0,-1.578,-1.5764,-1.5798,-1.5813,-1.5911,-1.596,-1.5973,-1.6049,-1.6081,-1.608,-1.6144,-1.6203,-1.63,-1.6313,-1.6329,-1.6313,-1.641,-1.6406,-1.6402,-1.6299,-1.6284,-1.6272,0,0,0,0,0,0,-1.5671,-1.5778,-1.5817,-1.583,-1.5884,-1.598,-1.598,-1.6031,-1.608,-1.6088,-1.6183,-1.6204,-1.6225,-1.6273,-1.6286,-1.6312,-1.6363,-1.6362,-1.6279,-1.6266,-1.6255,-1.6242,-1.6375,0,0,0,0,0,-1.5648,-1.5675,-1.5769,-1.5772,-1.5796,-1.5883,-1.5907,-1.596,-1.6022,-1.6046,-1.6113,-1.6173,-1.6218,-1.6245,-1.6291,-1.6302,-1.6325,-1.6299,-1.6288,-1.6278,-1.6276,-1.6284,-1.6274,-1.6387,-1.6387,-1.6387,0,0,-1.5602,-1.5664,-1.5676,-1.5751,-1.58,-1.5828,-1.5902,-1.5929,-1.5952,-1.6052,-1.6084,-1.6135,-1.621,-1.6229,-1.6242,-1.6271,-1.6249,-1.6273,-1.6264,-1.6268,-1.6279,-1.6268,-1.6258,-1.6384,-1.6385,-1.6385,0,0,-1.5532,-1.5581,-1.5588,-1.5634,-1.5704,-1.5762,-1.5763,-1.5851,-1.5887,-1.592,-1.5995,-1.6026,-1.61,-1.6149,-1.6184,-1.613,-1.6187,-1.6144,-1.6085,-1.6092,-1.6083,-1.6075,-1.6056,-1.6047,-1.6141,-1.6141,-1.6141,0,-1.5467,-1.5509,-1.5586,-1.5608,-1.5639,-1.5727,-1.5736,-1.5778,-1.5862,-1.5882,-1.5912,-1.6005,-1.6062,-1.6094,-1.6081,-1.6107,-1.6113,-1.6133,-1.6077,-1.6071,-1.6065,-1.6047,-1.6039,-1.6135,-1.6136,-1.6136,-1.6137,0,-1.5425,-1.5453,-1.5451,-1.5524,-1.5556,-1.5571,-1.5653,-1.5676,-1.5727,-1.5781,-1.5815,-1.5885,-1.5946,-1.5958,-1.601,-1.5998,-1.6013,-1.6059,-1.6112,-1.6047,-1.6031,-1.6025,-1.6127,-1.6129,-1.6131,-1.6132,0,0,-1.5291,-1.5404,-1.5402,-1.5436,-1.552,-1.5545,-1.5565,-1.5621,-1.5638,-1.5694,-1.5714,-1.5773,-1.5815,-1.5854,-1.5913,-1.5919,-1.5871,-1.5964,-1.5968,-1.5943,-1.5862,-1.5825,-1.5816,-1.5909,-1.5908,-1.5907,-1.5855,0,-1.5234,-1.527,-1.5339,-1.5355,-1.5382,-1.5465,-1.5483,-1.5538,-1.559,-1.5623,-1.5684,-1.5723,-1.5776,-1.58,-1.581,-1.5874,-1.5856,-1.5879,-1.5931,-1.5931,-1.5907,-1.5809,-1.5771,-1.5718,-1.585,-1.5849,-1.5848,0,-1.5172,-1.5216,-1.5232,-1.5312,-1.5327,-1.534,-1.5396,-1.5427,-1.5492,-1.5529,-1.5571,-1.5633,-1.5662,-1.571,-1.5752,-1.5766,-1.5792,-1.5827,-1.5827,-1.5833,-1.5885,-1.5812,-1.5703,-1.5694,-1.584,-1.5841,-1.5841,0,-1.507,-1.5135,-1.5153,-1.518,-1.5274,-1.5281,-1.5322,-1.5388,-1.5416,-1.5467,-1.5487,-1.5541,-1.5571,-1.5614,-1.569,-1.5718,-1.5723,-1.5778,-1.5756,-1.5754,-1.5753,-1.5752,-1.5645,-1.5771,-1.5771,-1.5771,-1.5771,0,-1.4998,-1.5005,-1.5108,-1.5119,-1.5129,-1.521,-1.522,-1.5269,-1.5326,-1.535,-1.5428,-1.5449,-1.5549,-1.5583,-1.5644,-1.5669,-1.5683,-1.5715,-1.5731,-1.5707,-1.5703,-1.5725,-1.573,-1.5769,-1.577,-1.577,-1.577,0,-1.4887,-1.4956,-1.498,-1.5066,-1.5088,-1.5091,-1.5167,-1.5182,-1.5238,-1.5267,-1.5279,-1.5368,-1.5412,-1.5492,-1.556,-1.5601,-1.5613,-1.5641,-1.5589,-1.5598,-1.5572,-1.5572,-1.5475,-1.5466,-1.5597,-1.5596,-1.5595,0,-1.4835,-1.4842,-1.4926,-1.4945,-1.4981,-1.5012,-1.504,-1.5121,-1.5148,-1.5221,-1.5227,-1.5276,-1.5319,-1.5386,-1.5459,-1.5512,-1.5542,-1.5504,-1.555,-1.5526,-1.554,-1.5538,-1.5539,-1.5493,-1.5491,-1.5489,-1.5488,0,-1.4737,-1.477,-1.4805,-1.4852,-1.4882,-1.4924,-1.497,-1.4983,-1.5075,-1.5102,-1.5144,-1.5177,-1.5244,-1.5293,-1.5355,-1.5401,-1.546,-1.5473,-1.547,-1.5446,-1.5414,-1.5429,-1.5559,-1.5475,-1.5476,-1.5477,-1.5478,-1.5478,-1.4654,-1.4662,-1.4722,-1.4759,-1.4801,-1.4842,-1.4859,-1.4915,-1.4951,-1.5008,-1.5055,-1.5094,-1.516,-1.5248,-1.5291,-1.5325,-1.5353,-1.535,-1.5349,-1.5346,-1.5336,-1.5409,-1.5337,-1.5338,-1.5338,-1.5339,-1.5339,0,-1.4558,-1.46,-1.4632,-1.4692,-1.4721,-1.4769,-1.4823,-1.4845,-1.4876,-1.493,-1.4969,-1.5019,-1.5065,-1.5141,-1.5194,-1.5207,-1.5235,-1.5218,-1.5218,-1.5227,-1.5309,-1.5305,-1.5194,-1.5194,-1.5194,-1.5194,-1.5194,-1.5194,-1.4512,-1.4528,-1.4568,-1.4607,-1.465,-1.4685,-1.4711,-1.475,-1.4792,-1.4842,-1.4879,-1.4926,-1.4989,-1.5047,-1.5093,-1.5114,-1.513,-1.5104,-1.5134,-1.5208,-1.5222,-1.5235,-1.5231,-1.5107,-1.5107,-1.505,-1.5049,-1.5048]},{"header":{"parameterUnit":"m.s-1","parameterCategory":1,"la1":30.2991,"la2":30.254,"lo1":-89.0895,"lo2":-89.0444,"dy":0.0017,"dx":0.0017,"nx":28,"ny":28,"refTime":"2025-07-25T09:00:00:Z","depth":0,"parameterNumber":3,"parameterNumberName":"V-component_of_WINDS"},"data":[0,0,0,0,0,0,0,0,0,0,0,0,0,0,0,0,0,0,0,0,0,0,0,0,0,0,0,0,0,0,0,0,0,0,0,0,0,0,0,0,0,0,0,0,0,0,0,0,0,0,0,0,0,0,0,0,0,0,4.8457,4.8454,0,4.8252,4.825,4.8248,4.8064,4.8062,4.806,4.8058,4.7845,4.7842,4.7838,0,0,0,0,0,0,0,0,0,0,0,0,0,4.8687,4.8683,4.8457,4.8454,4.8452,4.8253,4.825,4.8247,4.8065,4.8062,4.806,4.8057,4.7847,4.7842,4.7838,0,0,0,0,0,0,0,0,0,0,0,0,0,4.8545,4.8682,4.8457,4.8337,4.8324,4.8253,4.825,4.8246,4.8065,4.8062,4.8059,4.8056,4.7848,4.7843,4.7837,4.7868,0,0,4.782,4.7818,0,0,0,0,0,0,0,0,4.8553,4.8537,4.8357,4.8345,4.8331,4.8181,4.8253,4.8119,4.8066,4.8164,4.8058,4.8054,4.7959,4.7944,4.7913,4.7858,4.7849,4.782,4.7817,4.7814,4.7813,0,0,0,0,0,0,0,4.8563,4.8545,4.8376,4.8355,4.8339,4.8292,4.8269,4.8227,4.8082,4.8155,4.8141,4.812,4.7951,4.7919,4.7907,4.7846,4.782,4.7815,4.7812,4.781,4.7808,4.7811,0,0,0,0,0,0,4.8592,4.8554,4.8382,4.8369,4.8436,4.8291,4.8264,4.8232,4.8082,4.8056,4.8123,4.8112,4.793,4.7913,4.7899,4.7927,4.7814,4.7809,4.7806,4.7805,4.7809,4.7813,0,0,0,0,0,0,4.8598,4.8579,4.839,4.8458,4.843,4.829,4.8255,4.823,4.8197,4.8057,4.803,4.8116,4.7927,4.7906,4.7878,4.7917,4.7807,4.7802,4.7801,4.7806,4.7811,4.7983,0,0,0,0,0,0,4.8605,4.8582,4.8592,4.846,4.8428,4.8374,4.8258,4.8228,4.8188,4.8172,4.8044,4.802,4.7922,4.7887,4.7872,4.7907,4.7797,4.7797,4.7804,4.7809,4.7973,4.7993,4.801,0,0,0,0,0,4.8614,4.8647,4.8594,4.8574,4.8438,4.8377,4.8358,4.8247,4.8192,4.8202,4.8112,4.8024,4.7915,4.7886,4.7868,4.7901,4.7794,4.7802,4.7809,4.7965,4.7989,4.801,0,0,0,0,0,0,4.8786,4.8628,4.8567,4.8558,4.8483,4.8346,4.8354,4.8275,4.8212,4.82,4.8063,4.8036,4.8023,4.7958,4.7929,4.7925,4.7843,4.7847,4.7967,4.7989,4.8008,4.8024,4.7793,0,0,0,0,0,4.8824,4.8788,4.8651,4.8657,4.8622,4.8496,4.8464,4.8385,4.8301,4.8267,4.8176,4.8097,4.8044,4.8013,4.7957,4.7963,4.7933,4.7977,4.7996,4.8012,4.8017,4.8018,4.8037,4.7837,4.7837,4.7836,0,0,4.8899,4.8809,4.8794,4.8689,4.8621,4.8587,4.847,4.8438,4.8411,4.8262,4.8231,4.8161,4.8064,4.8054,4.8044,4.7999,4.8066,4.8021,4.8035,4.8031,4.8028,4.8047,4.8064,4.7842,4.7841,4.784,0,0,4.9021,4.8948,4.8947,4.8882,4.8782,4.8697,4.8698,4.8573,4.8522,4.8489,4.8377,4.8343,4.8255,4.8192,4.8148,4.8249,4.8166,4.8234,4.8332,4.8334,4.835,4.8363,4.8402,4.8417,4.824,4.8241,4.8241,0,4.9128,4.9074,4.8955,4.8932,4.8889,4.8755,4.8752,4.8694,4.8581,4.8555,4.8506,4.8396,4.832,4.8295,4.8321,4.8288,4.8285,4.8249,4.8358,4.837,4.838,4.8416,4.843,4.825,4.8249,4.8248,4.8247,0,4.9211,4.9175,4.9186,4.9082,4.9041,4.9028,4.8908,4.888,4.8805,4.8726,4.8695,4.8601,4.8525,4.8512,4.8437,4.8477,4.8453,4.8383,4.8298,4.8411,4.8442,4.8454,4.8263,4.826,4.8257,4.8255,0,0,4.9434,4.9268,4.9274,4.9227,4.9107,4.9077,4.9058,4.8986,4.8966,4.8892,4.8874,4.8805,4.8741,4.8691,4.8608,4.8611,4.87,4.854,4.8536,4.8575,4.8741,4.8797,4.8814,4.8644,4.8646,4.8648,4.875,0,4.9538,4.9499,4.9393,4.9386,4.9353,4.9226,4.9209,4.9135,4.9062,4.9022,4.8939,4.8894,4.8811,4.8781,4.8777,4.8691,4.8732,4.8681,4.8627,4.8627,4.8658,4.8829,4.8887,4.8988,4.8761,4.8763,4.8765,0,4.9653,4.9591,4.9582,4.9468,4.9449,4.9437,4.9364,4.9327,4.924,4.9187,4.9134,4.9043,4.9017,4.8938,4.8902,4.887,4.8841,4.8796,4.8797,4.8789,4.8704,4.8829,4.9017,4.9034,4.8782,4.8781,4.8779,0,4.9821,4.9734,4.9718,4.9681,4.9546,4.9541,4.9484,4.9394,4.9359,4.9294,4.927,4.9203,4.9167,4.9117,4.9011,4.8963,4.8988,4.8899,4.8944,4.8947,4.8956,4.8957,4.9145,4.8935,4.8934,4.8934,4.8934,0,4.9949,4.9949,4.9792,4.9783,4.978,4.9658,4.9658,4.9588,4.951,4.9485,4.937,4.9349,4.9209,4.9172,4.9088,4.9073,4.9056,4.9013,4.8992,4.9025,4.9031,4.9006,4.8997,4.8938,4.8937,4.8936,4.8936,0,5.0136,5.0031,5.0005,4.9881,4.9849,4.9853,4.9746,4.9732,4.9652,4.9623,4.9608,4.9483,4.9434,4.9324,4.9243,4.9188,4.9194,4.9153,4.9225,4.9211,4.9263,4.9261,4.9443,4.9462,4.9239,4.9241,4.9243,0,5.0225,5.0223,5.0099,5.0075,5.0024,4.9986,4.995,4.983,4.9797,4.97,4.9699,4.9641,4.9588,4.9516,4.9418,4.9358,4.9316,4.9384,4.9306,4.9341,4.932,4.9323,4.9323,4.9402,4.9405,4.9407,4.9409,0,5.0396,5.0345,5.0298,5.0235,5.0196,5.0139,5.0076,5.0062,4.9927,4.9896,4.9846,4.9806,4.9726,4.9671,4.9596,4.9537,4.9452,4.9435,4.9442,4.9477,4.952,4.9501,4.9274,4.9431,4.9429,4.9427,4.9426,4.9425,5.0538,5.0532,5.0445,5.0397,5.0338,5.0283,5.0265,5.0184,5.014,5.0068,4.9999,4.9956,4.9871,4.9762,4.971,4.9674,4.9631,4.9641,4.9644,4.965,4.9666,4.9525,4.966,4.9659,4.9658,4.9658,4.9657,0,5.0706,5.0645,5.0602,5.0519,5.0483,5.0406,5.0333,5.0308,5.0272,5.0201,5.0152,5.0096,5.0043,4.9942,4.988,4.9872,4.9832,4.986,4.9861,4.9849,4.9706,4.9707,4.9894,4.9894,4.9894,4.9894,4.9894,4.9894,5.0789,5.0775,5.0714,5.067,5.0607,5.0566,5.0531,5.048,5.0423,5.0366,5.0322,5.0257,5.0174,5.0106,5.0055,5.0026,5.001,5.0052,5.0012,4.9881,4.9859,4.9837,4.9838,5.0049,5.0049,5.0157,5.0159,5.0159]}]]